Theta_e
293 293 294 293 293 294 293 293 294 293 294 294 294 294 295 296 296 297 298 299 299 300 300 301 302 302 302 303 304 304 305 306 306 308 309 312 315 317 319 323 326 330 333 337 341 342 343 344 345 345 345 347 349 348 346 345 344 345 344 346 345 346 346 346 344 344 343 343 343 343 343 343 343 342 342 341 340 338 337 336 336 336 337 336 335
292 292 292 292 292 292 292 292 292 292 292 292 293 293 293 294 296 296 297 298 298 299 300 300 301 301 302 302 303 303 304 304 305 305 306 307 310 314 316 319 323 327 330 333 337 341 340 342 343 344 345 346 349 349 347 346 344 342 343 345 345 345 344 346 345 344 343 342 343 343 343 343 342 342 341 340 339 338 337 336 336 336 335 335 335
291 291 291 291 291 291 291 291 291 291 291 291 292 292 292 293 294 295 296 297 297 298 299 299 300 300 301 302 302 302 303 304 304 304 305 306 307 309 312 314 318 322 326 330 333 336 339 341 342 342 344 344 347 349 346 348 346 345 343 342 344 346 344 344 345 344 343 343 342 342 342 342 341 341 340 340 339 338 337 336 336 336 336 335 335
291 291 290 290 290 290 290 290 290 290 290 290 290 291 292 292 293 294 296 296 297 298 299 298 299 300 301 301 302 302 302 303 303 304 304 305 306 307 309 311 313 317 321 326 331 334 336 339 339 340 342 343 344 346 347 345 346 346 343 344 344 346 344 342 344 344 343 343 342 342 342 341 341 340 340 339 338 337 336 336 336 336 335 336 335
290 290 290 289 289 289 289 289 289 289 290 290 290 291 291 291 292 293 294 295 296 296 298 298 298 299 300 300 301 301 302 302 302 303 303 304 305 306 307 309 311 313 316 320 325 329 333 335 338 339 340 341 343 344 345 344 342 343 342 343 345 346 346 342 344 344 344 344 343 342 341 341 341 340 339 339 338 337 336 336 337 336 335 334 334
290 289 289 288 288 288 288 288 288 288 289 289 289 289 290 290 290 291 292 293 294 295 296 296 297 298 299 300 300 300 301 301 301 302 303 303 304 305 306 306 308 312 315 316 320 324 329 332 334 336 338 339 340 344 343 344 342 342 342 339 344 345 344 346 346 345 345 345 343 343 341 341 341 340 339 338 337 337 336 336 336 336 335 334 334
290 288 288 287 287 287 287 287 287 288 287 288 288 289 289 289 290 289 290 291 293 294 295 296 296 297 298 299 299 300 300 300 301 301 301 302 303 304 305 306 307 309 313 314 313 317 323 328 332 334 336 338 339 341 344 342 342 344 343 341 342 346 344 344 346 345 344 343 343 342 341 340 340 340 339 338 337 337 336 336 335 335 334 333 332
289 288 287 287 286 286 286 286 287 287 287 287 287 287 288 288 289 289 288 289 290 291 294 294 296 296 298 298 299 299 299 300 300 300 301 301 302 303 304 305 306 307 308 311 315 317 318 323 328 331 333 335 338 339 342 343 343 340 343 340 340 344 344 343 343 344 344 343 340 341 340 340 340 339 339 338 337 336 336 335 335 334 333 332 332
288 288 287 286 286 285 285 286 286 286 286 286 286 287 287 287 288 289 289 288 288 289 290 292 293 295 297 298 299 299 299 299 299 300 301 300 301 302 303 303 304 304 305 308 310 315 315 318 323 325 326 330 334 337 339 342 343 343 343 342 338 342 343 341 341 343 342 340 340 340 340 339 339 339 338 337 337 337 336 335 335 334 333 332 331
288 287 286 286 286 285 285 285 285 285 285 285 285 286 287 287 286 288 288 288 288 288 289 290 292 293 294 296 297 297 298 298 299 299 299 299 300 301 301 302 302 303 304 306 309 312 315 319 319 319 318 323 330 335 337 339 341 341 343 344 342 342 340 340 342 342 340 340 340 340 340 339 339 339 338 338 337 336 336 335 334 333 333 331 331
287 287 286 285 285 285 284 285 285 284 284 285 285 286 286 286 286 286 288 288 288 289 289 290 290 292 293 295 296 297 297 298 298 298 299 299 299 300 301 301 302 303 303 305 307 309 313 318 322 327 327 320 327 332 335 337 338 340 341 343 346 344 340 339 342 342 341 339 339 339 339 339 339 339 338 337 337 336 335 335 334 334 333 332 331
286 286 285 285 285 284 284 284 284 284 284 284 284 285 285 285 286 286 286 287 289 289 289 290 291 292 293 295 296 297 297 297 297 298 298 299 299 300 300 301 302 303 303 304 305 307 311 314 318 323 327 326 322 324 329 331 332 337 338 341 342 345 342 339 342 341 339 340 340 339 339 339 338 338 337 337 336 336 335 334 334 333 333 332 330
285 285 285 284 284 284 284 284 284 284 283 283 284 285 285 286 285 285 285 284 286 288 289 290 288 289 292 293 293 295 295 295 295 296 297 298 299 299 299 300 300 301 302 304 305 307 310 312 316 320 324 328 327 320 321 323 325 331 336 339 341 342 345 344 341 341 339 339 340 340 339 339 338 338 338 337 336 336 335 334 334 333 332 332 331
285 285 284 284 284 283 283 283 283 283 284 284 284 284 284 284 284 283 285 284 284 287 288 289 288 288 287 288 290 293 294 295 295 296 297 298 298 298 299 299 299 301 303 303 305 307 309 311 314 318 322 326 328 329 328 325 324 326 333 336 339 342 342 344 341 341 340 339 340 339 338 338 338 337 337 336 336 335 335 334 334 334 332 331 331
284 284 284 284 283 283 283 283 283 283 283 282 283 282 283 282 283 282 282 284 284 287 288 290 287 289 289 287 286 287 291 293 295 295 297 298 299 299 300 300 301 303 304 304 305 306 308 311 313 317 321 325 327 328 329 322 325 319 324 329 334 340 343 343 341 339 340 339 340 338 338 338 338 337 338 336 335 335 335 335 334 333 332 331 331
284 284 283 283 283 283 283 283 283 283 282 282 282 282 282 282 282 282 282 280 283 284 288 289 288 287 284 286 286 286 284 288 291 293 296 296 296 297 299 300 302 304 308 308 309 311 312 312 313 316 319 325 327 328 328 330 323 311 311 318 322 333 339 342 343 344 343 341 340 338 338 337 339 338 337 337 336 336 335 335 333 333 331 331 331
283 283 283 283 283 283 283 283 282 282 282 282 281 281 281 282 282 281 281 281 280 283 285 287 287 288 286 285 284 284 285 287 289 289 293 294 295 297 299 300 301 301 300 301 302 305 310 315 316 317 321 325 327 327 328 330 329 324 321 310 313 322 331 340 341 343 342 342 341 339 339 338 337 338 337 337 336 334 334 333 333 333 331 331 331
282 282 283 283 282 283 283 282 282 282 282 282 281 281 281 281 281 281 281 282 281 281 281 285 286 287 289 288 287 284 284 287 287 283 292 294 294 295 296 297 298 297 298 299 300 302 303 306 313 318 320 323 326 328 329 329 326 329 328 328 315 318 323 330 340 342 343 343 343 341 339 339 338 337 337 336 336 334 334 333 332 332 331 330 330
282 282 282 282 282 282 282 282 282 281 282 281 281 281 281 281 281 281 281 282 282 280 280 281 282 283 285 286 287 288 289 287 284 286 284 290 294 294 295 297 298 297 297 298 300 300 301 305 308 311 316 322 325 327 329 329 323 322 317 317 318 318 320 323 328 338 342 343 341 341 340 339 338 339 337 336 336 334 333 332 333 333 331 331 330
281 281 281 282 282 281 282 281 281 281 281 281 280 281 281 281 281 281 281 281 281 280 279 280 279 280 284 285 287 288 289 290 289 286 285 283 287 293 295 295 296 296 297 297 298 299 300 301 303 304 308 313 321 326 327 329 329 329 323 315 318 319 320 322 324 327 332 337 340 340 341 341 341 338 336 335 335 334 333 332 332 333 332 330 330
281 281 281 281 281 281 281 281 280 280 281 280 280 280 280 280 280 280 280 280 281 281 280 279 280 280 282 283 284 284 286 287 288 288 285 284 285 287 289 294 295 296 297 298 298 298 299 301 303 305 306 308 312 317 324 327 328 329 322 318 317 319 320 322 322 323 325 328 333 338 340 342 340 339 338 336 333 334 333 332 333 331 330 331 330
279 280 280 280 280 280 280 280 280 280 280 280 280 280 280 280 280 280 279 279 280 280 280 280 281 282 282 281 280 281 282 283 285 285 286 286 284 285 288 289 288 292 296 296 298 300 300 300 300 303 306 309 312 313 317 321 326 327 324 316 316 318 320 321 322 322 322 323 326 331 337 340 340 340 338 336 334 333 333 332 332 331 331 330 329
278 279 279 279 279 280 280 280 280 280 280 279 279 279 279 279 279 279 279 279 279 280 280 281 281 281 280 280 279 279 279 280 281 283 284 284 284 284 287 289 289 290 294 297 297 298 299 300 301 301 302 305 309 312 315 318 314 318 316 316 317 318 319 321 321 322 321 321 323 328 330 331 333 335 335 335 335 333 333 332 332 332 331 329 329
277 277 278 279 279 279 279 279 279 279 278 279 279 279 279 279 279 279 279 279 279 279 280 280 280 279 279 279 279 280 280 281 283 284 284 284 284 283 284 286 288 290 293 295 296 296 296 296 297 298 301 303 306 309 313 316 318 311 315 313 315 317 319 320 320 320 321 322 322 325 327 327 328 328 331 333 334 334 334 333 332 331 330 330 330
276 276 277 277 278 278 278 278 278 278 278 278 278 279 279 279 278 278 278 278 278 278 278 278 278 277 277 278 279 280 281 284 284 284 284 284 284 282 284 287 285 287 291 293 292 295 296 296 297 299 300 305 307 310 312 315 318 314 309 316 314 316 316 319 320 320 319 320 321 323 325 325 325 327 329 330 332 333 333 332 332 331 331 330 329
275 275 277 277 277 277 278 277 278 278 278 278 278 279 279 278 278 278 277 278 278 278 278 278 278 278 278 278 278 280 281 281 282 283 283 283 282 282 283 285 287 287 290 292 293 292 294 297 299 300 300 303 306 311 314 316 318 310 307 315 318 314 316 319 320 319 319 319 321 321 321 321 324 325 326 331 331 330 331 333 332 331 329 329 330
275 276 276 276 277 277 277 277 277 277 278 278 278 278 278 278 278 278 278 278 278 278 278 278 277 277 278 278 279 280 280 280 281 281 283 283 283 283 283 281 283 286 288 291 292 293 293 296 298 298 302 308 311 313 315 317 313 310 308 314 323 311 313 316 319 320 318 319 319 318 319 319 320 323 323 326 328 329 330 329 332 331 331 330 329
275 275 276 276 276 276 277 277 277 277 277 278 278 278 278 277 277 277 277 278 277 277 277 278 277 278 278 278 279 279 280 281 281 282 282 283 283 284 284 282 280 280 286 287 289 290 294 293 297 300 301 304 308 312 310 312 318 310 304 318 322 320 311 314 317 319 319 318 318 318 318 318 318 320 321 321 322 324 325 326 327 326 324 323 322
275 275 275 276 276 276 276 276 276 277 277 277 277 277 277 277 276 276 276 277 277 276 277 277 277 277 277 277 277 277 278 278 279 279 280 282 284 284 285 283 283 282 282 284 287 289 292 295 294 299 304 305 306 308 309 311 309 311 319 320 322 324 314 312 315 318 319 319 318 318 317 317 317 318 318 319 320 321 322 322 321 321 321 322 323
274 274 275 275 275 275 275 275 275 276 276 276 276 276 277 276 276 276 276 276 276 276 276 276 276 276 276 276 277 277 278 278 279 280 281 282 282 283 283 283 284 283 284 283 286 291 291 293 294 295 303 306 309 308 309 310 305 309 315 320 322 324 314 310 313 316 317 317 317 317 316 316 316 316 316 317 318 320 321 321 320 320 322 323 325
273 273 273 274 274 274 274 274 274 275 275 275 276 276 276 275 276 276 276 276 275 275 276 276 276 276 276 276 277 277 278 279 279 279 280 280 280 281 282 284 285 285 285 286 284 290 293 291 293 297 299 304 306 308 310 311 309 311 314 316 321 315 311 312 308 313 315 315 315 316 316 315 316 316 315 315 318 319 320 320 318 319 320 321 324
272 273 272 272 272 272 273 273 273 274 274 274 275 275 275 275 275 275 275 275 275 274 274 275 275 275 275 275 276 276 277 277 277 277 277 278 280 281 282 283 284 286 287 287 287 287 293 293 294 296 300 301 302 302 303 305 306 300 312 315 316 309 315 320 308 311 312 314 315 315 315 315 315 315 315 315 317 319 319 318 318 318 318 320 323
272 271 271 271 272 272 272 272 273 273 273 273 274 275 274 274 274 274 274 274 274 273 273 273 274 274 274 274 275 276 277 276 276 277 278 279 280 281 282 282 282 284 286 287 286 288 292 295 295 295 298 300 300 301 301 301 302 304 303 312 315 317 318 320 318 307 310 312 313 314 315 315 315 315 315 314 315 317 317 317 316 316 317 320 321
271 270 270 271 271 272 271 272 272 272 272 273 273 273 273 272 272 273 273 273 273 272 272 272 272 273 273 273 274 274 275 275 276 275 276 276 276 277 278 280 281 283 287 288 288 288 288 292 293 296 297 301 298 300 299 299 300 301 305 309 313 316 317 317 319 315 308 311 313 313 314 314 315 315 315 314 315 316 316 316 315 315 316 318 318
270 270 270 271 271 271 271 271 271 271 271 271 272 271 271 271 271 271 272 272 271 271 271 271 271 272 272 272 273 274 275 274 274 275 275 275 275 275 277 279 280 282 285 288 289 288 288 290 294 294 296 299 299 299 300 300 300 303 304 306 310 313 315 316 316 318 309 312 313 313 314 314 314 315 314 314 314 315 315 315 314 314 315 316 317
269 270 270 270 270 270 269 269 269 269 269 270 270 270 269 269 269 269 270 270 270 270 270 270 271 271 271 271 272 273 273 273 273 273 274 275 275 276 277 279 280 282 284 288 289 289 289 288 292 293 296 296 298 300 301 301 301 302 304 306 310 313 314 314 314 317 313 311 312 312 313 313 313 314 314 313 314 314 314 313 313 313 314 314 314
269 269 269 269 268 268 267 267 267 267 267 268 268 268 268 268 268 268 268 268 269 269 270 270 271 270 270 271 272 273 273 272 273 273 273 273 274 275 276 279 280 282 284 288 290 291 289 289 291 294 295 297 298 299 300 299 299 301 303 305 307 311 313 311 310 315 311 310 310 310 311 312 313 313 314 313 313 313 313 313 312 312 312 312 312
267 267 267 266 266 266 266 266 266 266 266 266 266 266 267 267 267 267 267 267 268 268 269 269 269 270 270 270 271 272 272 272 272 272 273 273 273 274 277 279 281 282 283 287 290 290 290 290 291 291 293 293 294 296 299 299 299 298 299 303 307 310 311 309 308 310 314 315 315 314 310 311 310 311 312 312 313 312 312 312 311 311 310 309 310
265 265 265 265 265 265 265 265 265 265 265 265 265 265 266 266 266 266 266 266 267 267 268 268 269 270 270 270 271 272 272 272 272 272 272 272 273 274 275 277 278 279 281 285 289 289 289 289 291 291 291 292 294 292 296 299 299 299 299 299 301 306 310 311 308 307 312 313 311 310 312 312 310 312 310 311 312 311 311 311 311 310 308 308 310
263 263 263 263 263 264 264 264 264 264 264 264 265 265 265 266 266 266 266 266 267 267 268 268 269 270 270 271 271 272 272 272 272 272 273 272 273 273 274 277 279 280 281 283 286 288 288 289 289 289 290 291 292 293 296 295 295 296 299 301 301 303 307 309 309 308 310 312 311 311 309 309 309 310 308 309 310 310 310 309 309 308 306 308 310
263 263 263 263 263 263 263 263 264 264 264 264 265 265 265 266 266 267 267 268 268 268 268 269 269 270 270 271 272 272 273 275 276 276 276 276 273 273 274 276 276 277 279 283 286 287 288 288 287 288 287 288 290 292 292 292 293 293 296 299 301 305 308 308 307 309 309 310 310 312 312 313 312 312 312 313 312 310 309 307 307 304 306 309 309
262 262 262 262 262 262 262 263 263 264 264 265 267 270 271 269 268 269 269 269 269 270 270 270 269 270 271 271 272 275 275 276 276 277 278 278 279 277 276 276 277 278 278 278 282 286 286 286 286 286 286 286 288 289 291 293 295 296 296 297 298 304 307 308 306 306 309 311 309 308 310 313 313 312 312 312 311 310 312 312 312 310 307 309 309
261 261 262 262 262 263 263 263 263 264 264 265 269 271 273 273 271 269 269 269 270 270 270 270 271 271 272 272 272 273 275 275 275 277 278 279 279 280 281 281 281 279 278 278 280 283 285 285 286 286 286 286 287 288 289 292 295 295 296 297 299 303 304 304 302 303 308 311 309 308 307 309 311 310 311 311 311 312 313 314 308 306 307 309 309
261 261 261 262 263 263 263 264 263 264 264 268 270 271 272 273 273 270 269 269 270 271 271 271 272 272 272 273 274 274 274 274 274 275 276 278 279 279 280 281 282 283 284 281 280 282 285 285 285 286 286 286 287 287 288 289 291 295 296 297 298 302 303 304 304 302 306 311 309 307 306 307 310 310 309 310 311 312 313 311 307 307 308 309 309
261 261 262 262 262 263 263 263 263 263 264 268 270 271 272 273 274 273 270 270 270 271 272 272 272 273 273 273 273 274 274 277 276 275 275 275 278 279 280 280 281 283 285 286 286 284 285 286 285 285 286 287 286 287 288 288 291 291 295 296 297 301 305 304 304 305 306 311 310 307 305 306 308 307 308 310 311 312 311 308 308 307 308 308 308
261 261 261 262 262 262 262 262 263 263 263 267 270 271 272 273 274 273 270 271 271 271 272 272 273 274 274 273 273 274 275 275 275 275 275 275 275 276 277 278 280 282 284 286 286 287 287 287 286 285 287 289 287 288 289 289 287 286 287 290 297 300 303 304 306 306 309 312 309 307 303 304 307 308 307 309 310 311 312 309 307 308 308 308 308
260 260 261 261 261 261 262 262 262 262 263 268 270 272 272 273 274 274 271 271 271 271 272 273 273 274 275 275 275 274 275 275 276 276 275 275 275 275 276 277 280 283 285 285 286 287 287 288 288 288 288 289 289 289 289 290 289 288 289 289 291 299 305 305 304 306 308 310 310 307 302 304 306 306 307 307 307 310 310 307 306 307 307 308 308
261 261 261 261 261 261 261 261 261 261 262 269 270 271 273 274 275 271 270 270 270 271 272 273 273 274 275 275 275 275 275 275 277 279 279 277 275 275 275 276 277 278 281 287 288 289 289 289 289 289 289 289 290 289 289 290 290 290 289 289 290 292 301 301 300 302 304 307 307 306 303 303 306 306 305 306 306 307 307 307 306 306 306 307 307
260 260 260 260 261 261 261 261 261 261 262 266 270 272 273 274 272 269 270 270 270 270 270 271 272 273 274 275 275 275 276 276 278 280 280 279 276 276 275 276 278 280 282 286 289 290 290 290 290 290 291 291 291 292 292 292 290 290 287 286 285 288 298 300 300 301 303 304 304 305 303 301 304 305 303 302 304 304 305 306 307 306 306 306 306
259 260 260 260 261 261 261 261 261 261 262 266 270 271 272 273 273 270 270 269 269 269 270 271 272 273 274 276 277 276 276 277 279 280 280 279 276 276 276 276 277 278 281 285 287 288 289 290 290 290 290 290 291 291 291 291 291 290 287 285 286 288 295 301 299 301 302 303 302 304 302 301 303 303 299 298 300 302 304 305 305 306 304 305 305
259 260 260 260 260 261 261 261 264 264 263 265 269 271 272 273 272 270 269 269 268 269 269 270 271 272 273 274 276 277 277 278 281 281 281 279 277 276 276 277 277 279 281 283 285 285 286 286 287 288 288 288 288 288 288 289 290 290 289 288 288 287 292 300 300 301 299 300 302 304 301 300 300 298 298 297 298 292 296 299 302 305 305 304 305
Wind_Speed
6 7 6 6 6 6 6 7 7 7 8 8 7 8 8 7 7 7 7 8 8 8 8 8 8 8 9 10 10 10 10 10 9 9 9 9 9 11 14 16 18 20 22 25 28 29 28 28 29 31 29 29 27 24 27 29 29 25 26 28 29 28 26 27 27 28 29 27 26 26 26 26 26 25 26 25 24 25 24 25 24 24 24 23 23
6 6 6 6 6 6 6 7 7 7 7 8 8 8 8 8 8 8 8 8 8 9 8 9 9 9 9 10 10 10 10 10 10 9 9 10 10 10 15 15 15 19 21 22 26 29 29 27 29 31 31 32 28 28 29 29 34 29 28 29 31 29 30 29 29 29 29 29 27 27 26 26 26 26 27 25 25 26 27 25 25 25 24 24 24
6 7 6 7 6 7 7 7 7 7 7 7 7 8 8 8 9 9 9 9 8 8 9 9 10 9 9 10 10 10 10 10 10 10 11 10 10 10 13 17 17 17 18 22 24 26 29 30 29 30 31 32 31 27 29 30 31 32 32 29 28 30 30 29 28 29 29 29 28 28 27 26 26 27 27 26 26 26 26 25 26 26 24 23 22
7 7 7 7 6 6 6 7 7 7 8 8 9 8 8 8 10 9 10 9 9 8 8 9 10 9 9 11 11 11 11 10 10 11 11 11 11 11 10 13 17 17 17 20 24 25 26 29 30 30 30 33 32 30 26 31 31 33 31 31 32 33 31 25 29 30 29 29 28 28 28 27 27 27 27 27 28 27 26 25 25 25 24 23 22
6 7 7 6 6 6 6 6 6 7 7 9 10 8 7 8 8 8 9 9 9 9 8 8 9 10 10 10 10 11 11 11 11 11 11 11 11 11 11 12 13 17 19 18 20 24 25 26 28 30 31 32 33 31 29 27 30 28 32 32 31 33 36 35 33 31 30 30 29 29 29 29 28 28 28 28 27 27 26 26 26 26 25 23 22
5 6 6 6 6 5 5 6 6 7 7 7 8 7 7 8 9 8 8 8 9 9 9 10 9 9 10 10 10 11 11 12 12 12 11 12 11 12 12 11 11 12 12 17 18 19 22 23 26 30 31 31 30 33 32 31 31 31 31 35 36 36 38 35 33 31 31 31 30 30 29 29 29 29 28 28 27 27 27 26 25 26 25 24 22
4 5 5 5 6 5 5 5 6 7 7 7 7 7 7 8 8 9 9 8 9 9 10 10 11 11 10 10 10 11 11 12 12 12 13 13 12 13 12 12 12 12 12 12 14 19 21 22 25 27 31 31 32 31 33 34 32 28 29 33 35 31 34 32 32 34 32 33 32 31 30 30 30 30 29 29 28 28 27 26 25 25 23 22 23
4 4 5 5 5 6 5 6 7 7 7 7 7 7 7 7 7 8 9 9 10 10 9 11 11 12 11 11 11 11 11 11 13 13 13 13 13 13 12 13 13 12 13 13 13 15 19 19 22 23 25 28 29 31 33 34 33 34 28 30 34 32 31 28 27 30 33 30 31 30 30 30 30 30 31 30 29 29 27 26 26 25 25 25 25
4 4 4 5 5 5 5 6 6 6 6 7 7 7 7 7 7 7 8 9 10 12 11 11 11 11 11 12 12 12 12 12 13 13 12 14 15 14 14 14 14 16 15 14 14 13 17 21 21 23 24 24 26 30 32 35 35 33 31 31 34 32 30 33 36 34 31 30 31 32 31 30 31 31 31 30 30 28 28 27 26 26 26 26 27
4 4 4 4 4 5 5 5 6 5 6 6 6 6 7 7 9 8 8 9 10 10 12 11 11 12 12 12 13 12 13 13 13 13 13 15 14 14 14 14 14 14 14 14 14 14 14 17 21 23 24 25 26 28 31 32 32 32 34 32 32 28 29 33 36 34 33 30 32 31 30 33 32 31 30 30 28 29 30 31 30 28 28 29 28
5 5 5 5 4 4 4 5 5 5 5 6 6 6 7 7 9 10 8 8 10 11 12 12 13 13 14 15 13 15 13 13 14 14 14 14 15 15 13 15 14 14 15 15 14 15 16 14 12 12 15 25 26 27 30 29 30 30 33 34 31 28 29 35 33 31 32 31 31 33 31 31 32 28 32 31 31 31 32 30 32 30 28 28 28
5 5 5 5 5 5 6 5 5 6 6 7 7 7 9 10 9 10 12 10 9 10 11 12 13 15 16 16 14 15 15 14 15 15 14 14 14 13 14 13 13 15 16 15 15 16 16 15 14 14 14 16 23 24 26 28 28 31 35 35 36 31 30 32 33 31 29 34 36 33 34 33 29 31 33 33 34 31 31 32 31 31 30 29 28
5 6 6 5 5 5 6 6 6 6 7 7 8 10 9 9 10 9 10 11 9 8 10 11 14 14 11 14 15 12 15 15 16 15 14 13 13 14 14 14 14 15 15 14 15 16 16 16 15 15 15 14 15 22 25 27 27 27 33 35 35 34 32 32 34 36 39 37 35 34 34 34 33 34 34 34 34 34 32 33 33 32 30 31 30
6 6 6 5 6 6 6 7 7 7 7 8 9 9 10 9 9 10 6 9 9 8 9 10 9 9 16 17 15 11 13 14 13 13 14 13 13 14 13 14 15 14 13 14 15 16 16 16 16 15 15 15 14 12 13 17 22 31 31 35 36 35 34 33 30 30 36 34 37 35 33 33 36 36 36 37 37 36 34 34 32 31 33 32 32
6 6 5 5 5 5 6 6 6 7 8 8 8 9 8 9 9 9 11 8 9 8 9 6 10 11 12 14 15 17 12 6 9 11 10 10 10 11 11 12 14 13 13 13 14 15 14 15 17 17 16 16 14 14 13 14 15 24 29 29 33 35 35 33 31 38 37 41 32 29 36 38 36 36 35 38 38 38 36 34 33 34 34 35 32
7 7 5 5 6 6 6 6 7 7 8 9 9 9 8 8 8 9 9 13 8 8 6 8 8 10 10 5 11 12 17 9 5 10 9 13 14 14 13 14 15 15 12 13 14 14 16 16 17 17 18 17 15 14 14 14 19 21 25 27 29 30 35 37 36 32 36 40 40 37 37 38 35 39 41 39 39 40 40 36 37 36 36 34 33
8 7 6 6 6 6 7 7 8 8 8 8 8 8 9 8 9 9 9 9 13 9 9 8 10 8 10 11 10 7 10 15 17 19 10 10 12 11 10 10 10 11 12 13 12 14 14 16 17 18 17 17 16 15 14 15 16 15 19 25 27 30 31 36 36 34 30 35 36 32 37 40 41 40 38 39 37 39 38 38 38 38 39 36 33
7 7 6 6 6 6 7 8 9 8 8 8 9 9 9 9 8 9 10 10 11 13 12 8 9 11 12 13 12 13 15 16 14 18 11 10 16 14 17 16 15 14 14 13 12 11 11 13 15 17 18 17 16 15 15 15 15 14 13 15 27 28 30 32 34 36 34 33 32 31 34 33 30 34 38 44 38 36 39 41 40 36 39 35 37
7 6 6 6 6 7 7 8 8 8 8 8 9 10 9 9 8 8 9 10 10 13 14 11 9 11 12 16 18 17 18 15 16 15 21 15 9 14 13 12 11 13 15 15 14 14 13 12 14 15 17 16 17 16 15 15 18 19 21 21 23 26 28 31 31 30 33 33 34 36 38 41 40 44 45 43 40 41 41 42 36 38 38 37 35
7 7 6 6 6 7 7 8 8 9 8 8 9 9 9 9 9 10 10 10 12 13 15 12 10 11 8 12 15 16 18 19 19 16 18 23 20 11 14 20 18 16 17 17 16 16 16 15 14 15 14 15 15 14 15 15 15 16 16 22 22 23 26 29 31 31 28 26 32 36 38 40 39 37 38 41 44 41 39 41 41 36 38 37 35
7 7 7 7 7 8 8 9 9 9 9 9 9 10 11 11 11 10 11 11 11 13 14 14 12 14 11 12 13 14 14 16 18 17 15 19 20 18 17 16 18 16 16 15 15 16 15 15 14 14 14 14 14 14 13 13 14 14 17 22 23 22 24 27 29 29 31 31 30 34 40 39 40 43 41 32 36 39 40 39 36 38 37 36 38
6 6 7 7 8 8 9 9 10 10 10 10 11 11 11 11 12 14 13 15 11 13 15 14 13 14 13 13 13 13 14 15 16 16 17 19 20 22 18 18 19 16 15 15 17 16 17 17 16 16 16 15 14 14 15 14 12 14 17 22 24 25 25 27 28 28 31 29 30 33 35 39 45 48 45 41 41 40 39 38 38 38 39 39 41
6 6 7 7 8 8 9 9 10 10 10 11 11 11 11 12 13 15 15 16 13 14 15 16 15 17 17 15 16 15 15 15 16 15 16 17 17 20 21 17 19 20 15 14 15 18 15 14 15 15 16 17 16 15 14 14 16 16 19 21 26 27 27 27 28 30 24 22 27 31 31 32 32 38 46 44 41 41 40 40 38 36 37 41 40
6 7 6 6 7 8 9 10 10 10 11 10 11 11 11 12 13 13 14 14 14 14 14 16 18 16 18 16 16 16 16 17 16 16 16 17 17 20 19 18 19 19 17 16 18 20 17 17 17 18 18 18 17 15 14 16 15 21 19 20 19 23 26 28 29 29 28 30 29 30 29 30 32 32 32 39 42 42 42 42 40 39 40 41 40
6 7 8 8 8 9 9 9 10 10 11 12 12 13 14 13 14 15 15 16 15 14 14 17 17 18 17 16 15 16 17 16 17 19 18 17 16 19 19 17 19 19 16 15 15 13 15 16 16 16 17 17 16 15 14 15 13 16 20 20 24 22 24 26 28 30 30 30 31 32 30 27 31 34 36 35 38 44 44 44 43 42 42 42 42
9 9 8 10 9 10 11 12 12 13 13 13 14 15 14 15 15 15 16 14 14 16 17 18 18 18 17 16 17 16 18 14 14 14 16 15 15 17 18 15 16 19 15 14 16 15 14 15 16 16 17 17 16 15 14 14 15 19 20 17 22 26 26 27 29 30 31 32 32 32 28 31 35 33 37 38 38 37 43 43 43 43 46 45 43
8 9 9 10 11 11 12 13 13 13 13 14 13 14 16 15 15 15 16 14 15 16 16 16 18 18 18 18 17 18 18 16 14 16 16 16 15 14 14 19 18 17 13 13 14 17 18 14 14 15 14 13 15 14 13 13 15 18 19 16 15 24 26 27 29 30 30 31 31 30 32 31 36 44 39 38 40 39 41 44 43 44 44 43 42
9 10 10 10 11 12 12 13 13 13 14 14 15 15 14 15 15 15 16 14 14 19 17 18 19 21 20 17 17 16 15 15 15 15 16 17 16 15 13 16 21 20 15 15 15 18 19 17 14 16 16 14 14 13 14 13 12 17 17 13 15 17 24 25 27 28 31 32 31 31 34 34 31 37 44 43 40 35 36 40 41 40 39 38 37
9 9 11 10 11 12 12 13 13 13 14 14 15 15 15 15 16 16 18 15 17 18 17 17 18 18 17 21 19 19 21 19 19 20 20 19 17 15 15 16 16 22 19 17 16 16 15 13 14 11 13 13 12 12 14 12 11 11 11 15 14 13 23 29 27 27 29 30 29 30 30 31 33 35 39 44 42 39 35 34 36 37 35 34 34
9 9 10 12 12 12 12 13 13 14 14 14 14 16 15 16 16 18 16 17 17 16 17 18 17 17 18 18 17 17 17 17 17 18 18 18 17 16 16 16 16 21 18 18 17 12 14 10 13 14 10 12 11 11 11 11 12 13 11 15 17 17 20 25 29 30 27 27 31 32 31 32 32 31 31 34 38 37 36 33 31 33 35 36 36
10 10 11 12 12 12 12 13 13 13 13 14 14 15 15 15 16 15 16 16 15 18 16 15 16 14 17 18 16 16 16 16 14 12 13 13 14 14 16 16 16 19 20 17 19 12 10 12 13 14 14 12 9 7 6 6 7 10 10 13 17 23 26 21 26 27 27 29 26 30 33 34 35 33 31 32 35 40 37 34 31 31 34 35 35
10 11 11 12 13 13 12 13 15 14 14 14 14 14 14 14 14 15 15 15 18 18 18 17 17 15 18 20 19 18 16 16 15 17 15 17 16 17 17 15 16 18 17 17 17 21 7 13 13 14 14 13 10 11 10 9 9 11 9 13 15 20 20 16 27 29 28 28 30 29 35 37 37 36 35 31 34 37 37 35 33 33 32 33 32
10 12 12 13 13 13 14 13 13 13 14 14 13 13 14 15 16 14 17 17 18 19 17 19 20 18 18 19 19 18 18 19 18 16 15 16 15 15 14 14 15 17 17 17 18 18 14 11 12 12 13 13 13 10 12 10 10 10 11 12 15 14 13 15 16 30 31 30 30 32 34 38 39 38 37 35 31 33 36 35 33 32 33 33 32
11 12 13 12 11 13 13 14 14 14 15 15 15 14 16 16 15 13 14 17 17 19 20 20 20 16 17 19 20 19 18 19 19 20 15 15 16 15 16 15 15 17 17 17 17 16 15 9 12 11 11 10 13 9 11 10 10 10 13 12 13 15 13 12 13 18 33 32 34 36 38 40 40 39 38 38 36 33 35 35 33 32 31 30 32
11 11 12 12 13 13 14 14 14 15 15 15 14 15 16 16 17 16 16 17 18 18 19 20 19 17 19 19 20 18 16 18 19 18 18 17 17 18 20 17 17 17 19 20 17 16 16 13 11 12 11 10 11 10 9 10 9 10 13 13 13 12 12 14 13 13 30 35 37 38 41 43 43 42 40 40 39 36 37 36 36 34 32 31 32
12 11 12 13 13 13 14 14 14 14 15 15 15 15 16 16 17 18 18 18 18 18 19 20 19 17 18 19 19 18 18 19 19 18 17 16 16 16 17 17 16 16 18 19 21 15 12 14 10 12 12 11 10 9 10 8 8 10 11 12 13 14 13 12 11 15 27 40 40 39 41 43 45 43 42 41 39 36 36 37 35 34 32 32 32
11 11 11 11 13 13 13 14 15 15 15 16 16 16 16 15 17 17 18 18 18 18 19 20 19 19 19 19 19 18 17 19 18 19 16 19 17 17 18 16 15 16 15 17 18 16 14 15 12 10 11 12 11 10 9 9 8 9 9 13 13 14 13 9 5 15 31 47 44 42 40 41 44 45 43 41 39 36 35 36 35 33 32 32 31
11 10 12 11 11 14 14 14 15 15 15 15 16 17 17 16 16 17 17 17 18 18 18 18 18 18 17 18 18 18 18 18 19 19 18 20 18 19 19 16 14 15 17 18 18 16 15 15 11 9 10 11 9 10 9 8 9 10 9 11 12 13 12 6 3 7 18 26 28 34 36 37 39 41 40 39 37 36 34 35 34 33 33 32 31
10 11 11 12 12 13 14 15 15 15 16 15 15 16 16 17 17 17 17 17 18 17 17 18 18 18 18 17 18 18 19 19 19 20 19 20 18 20 18 17 16 16 18 16 14 13 13 12 9 10 11 10 9 12 9 7 8 9 10 10 11 11 13 11 7 3 11 20 25 34 36 34 38 32 35 36 35 34 34 34 35 35 33 32 31
10 11 12 13 13 13 14 14 15 16 17 16 16 15 16 16 16 16 16 17 17 17 18 19 18 18 18 18 18 19 19 18 19 20 19 18 17 19 18 15 15 15 16 17 16 14 11 9 9 7 7 8 7 9 8 5 7 8 8 9 12 11 12 9 10 9 8 17 17 16 21 28 29 32 35 33 34 33 32 31 34 34 34 31 31
8 10 12 14 15 15 14 15 17 16 15 15 13 13 15 16 16 17 17 17 17 18 19 19 18 19 18 18 18 18 21 25 30 27 26 23 17 17 18 15 16 17 17 16 14 11 8 9 9 8 9 9 8 6 6 8 10 12 7 7 13 13 11 11 8 9 8 13 15 18 17 18 18 17 17 17 21 26 26 27 25 29 30 30 30
8 10 11 12 13 14 15 16 15 14 13 12 15 24 23 19 19 18 17 17 17 17 17 18 18 18 19 18 18 27 29 31 30 31 31 31 31 25 20 17 16 15 15 16 15 9 9 10 9 8 9 9 6 5 7 7 7 8 8 9 13 14 13 14 10 8 12 12 13 16 16 18 20 18 17 17 18 21 17 19 19 22 27 30 29
8 9 10 12 13 14 15 15 15 14 13 13 24 26 27 29 22 19 18 18 18 18 18 18 19 18 16 18 17 21 25 27 25 30 29 30 30 31 33 33 28 20 17 18 16 15 12 11 10 10 10 10 7 5 7 8 8 8 9 10 13 14 15 19 16 9 11 16 15 15 13 14 19 18 16 16 18 18 18 18 26 28 30 29 29
8 8 10 12 13 14 13 14 15 15 15 20 26 27 28 28 26 20 18 17 17 17 17 18 17 17 18 18 16 15 14 17 17 19 22 27 29 30 31 31 31 34 32 22 18 17 13 10 9 11 11 10 8 6 6 5 8 10 10 10 12 15 16 17 20 15 10 17 17 17 16 13 16 17 17 17 18 18 20 24 29 28 29 29 28
8 9 11 12 12 13 14 16 16 15 16 22 27 29 29 29 29 25 17 17 17 17 18 18 19 17 19 16 19 18 14 26 22 21 21 20 25 30 30 32 33 35 32 33 32 23 16 13 12 14 13 9 9 9 4 4 6 12 12 11 12 14 15 19 17 19 17 21 20 18 18 17 17 17 15 15 16 16 17 22 31 30 29 28 28
9 10 11 12 13 14 14 15 16 16 17 22 28 29 29 30 29 25 18 17 17 17 18 18 18 18 18 19 16 19 17 17 19 19 21 16 17 17 18 17 17 23 28 31 31 32 26 18 15 16 15 8 10 7 2 0 4 8 11 14 13 16 16 18 20 21 21 22 26 20 16 17 18 19 17 14 15 16 15 20 30 30 29 29 28
10 10 11 12 11 11 13 14 14 15 14 27 29 30 29 29 29 25 16 15 15 15 17 18 19 18 19 18 19 19 17 18 16 19 17 18 16 17 18 19 18 16 16 17 17 18 19 17 17 18 16 12 10 7 6 4 7 7 9 14 18 18 16 11 14 19 22 22 26 25 21 17 17 19 17 15 13 14 15 20 26 27 29 30 30
8 9 9 9 11 12 12 13 13 15 15 27 28 28 30 29 30 17 14 15 15 16 16 17 17 17 17 17 17 18 18 19 22 30 27 20 17 18 20 20 19 19 18 17 20 20 19 16 15 15 13 13 12 10 8 7 8 7 9 12 15 18 17 14 15 16 19 18 23 23 18 18 18 20 17 13 13 14 13 13 23 27 27 29 31
10 9 9 9 10 11 13 12 13 14 13 21 27 30 29 30 23 15 15 14 14 15 16 17 17 17 16 17 17 18 19 20 24 28 29 26 17 18 18 18 17 16 14 13 19 22 22 22 24 24 24 21 19 19 19 21 14 9 7 12 16 14 16 16 17 18 17 16 13 21 20 18 16 17 15 12 14 14 13 14 15 24 28 27 28
10 9 9 10 10 10 11 13 12 14 13 20 29 29 29 28 25 18 14 14 15 16 16 16 15 16 18 26 25 20 19 18 25 29 30 24 16 17 17 17 19 18 17 13 9 11 18 22 23 25 24 23 23 24 24 22 21 14 8 14 15 11 17 16 16 16 14 16 15 16 20 19 17 15 15 8 8 6 11 11 13 17 24 25 28
9 9 9 10 10 10 11 12 18 19 13 17 25 27 28 28 23 16 16 14 16 16 15 16 15 16 17 19 26 25 22 23 29 28 29 23 16 16 16 17 18 16 13 11 10 10 9 9 11 13 13 14 13 13 13 17 17 14 13 15 13 13 17 15 18 17 17 14 14 20 21 15 17 13 15 12 12 2 4 8 12 13 14 13 18
Wind_Direction
351 352 345 358 353 354 350 352 347 347 344 342 343 337 332 327 322 317 314 310 307 304 302 297 294 294 294 293 293 294 293 293 292 293 289 289 287 286 285 284 284 282 279 280 277 269 264 263 263 262 256 250 242 235 228 230 230 226 224 217 218 210 193 188 186 186 186 188 185 183 182 180 178 176 176 178 173 174 172 172 173 175 173 173 172
347 346 348 352 352 351 352 351 346 345 345 339 339 334 330 325 322 319 315 310 307 303 301 295 291 287 285 287 287 288 289 290 291 290 291 288 287 285 281 278 276 279 278 274 277 278 275 268 264 263 261 257 248 237 236 229 231 229 229 216 212 206 206 193 188 187 186 186 185 184 185 182 178 177 176 176 174 174 174 171 174 177 176 174 173
349 346 347 349 350 351 352 346 346 346 342 333 331 328 324 323 322 320 316 312 305 302 300 296 291 285 279 278 281 283 283 284 285 286 286 286 286 287 287 283 278 273 271 272 269 270 273 273 270 266 265 261 254 247 241 240 231 228 229 221 223 208 208 201 192 190 187 187 185 185 185 182 179 177 177 174 175 175 176 174 175 177 175 175 173
346 346 343 344 347 348 345 347 343 339 337 332 326 322 317 313 314 315 311 308 305 301 297 296 292 287 282 276 275 276 278 280 280 281 280 281 281 282 280 283 281 274 270 270 269 265 265 270 270 268 266 264 259 251 243 241 234 231 230 229 216 211 205 208 198 191 188 188 187 186 184 182 179 179 176 175 173 175 176 173 171 174 176 174 172
343 341 338 335 338 340 344 341 337 334 328 324 319 318 317 316 313 312 309 309 305 304 300 292 290 288 284 279 277 274 272 273 274 276 277 278 278 277 276 277 277 278 272 264 264 264 262 261 266 269 267 264 261 257 249 237 240 235 237 226 224 217 208 203 200 192 188 186 187 186 184 183 180 180 177 176 176 175 175 174 172 172 174 178 174
333 333 332 329 329 333 336 334 333 330 325 325 325 323 318 317 316 316 312 307 303 301 301 297 290 288 286 286 279 276 274 270 268 270 272 274 276 273 273 273 273 274 275 273 266 261 259 257 257 262 265 264 260 259 255 250 240 234 232 230 221 222 218 204 196 192 189 187 185 186 185 182 181 180 177 176 176 175 176 176 176 174 175 176 173
320 323 323 322 321 326 331 333 330 326 325 326 321 318 316 317 319 317 312 305 298 295 293 291 293 290 285 283 283 284 278 273 270 265 263 268 267 269 271 270 268 269 269 271 268 259 254 255 252 253 259 260 260 258 258 254 251 237 229 232 229 226 220 212 205 190 190 191 187 186 185 183 181 181 178 176 176 175 176 176 175 176 176 175 173
309 313 312 317 319 322 327 327 329 328 327 324 325 321 320 313 309 310 313 311 310 303 295 288 283 284 283 280 278 276 277 277 275 272 270 266 262 263 265 268 270 267 269 269 267 266 260 253 251 249 248 254 257 258 257 256 252 249 236 234 235 225 222 214 219 196 190 185 189 190 186 183 182 181 179 177 175 174 175 175 175 174 175 177 176
290 291 298 308 312 316 316 319 321 321 316 318 314 315 316 311 307 304 302 302 304 302 301 295 290 284 283 280 277 276 272 272 274 276 275 267 269 265 261 263 267 268 267 262 263 263 258 251 249 247 247 246 249 252 254 255 253 248 240 230 232 227 220 213 209 210 196 193 192 190 186 184 183 182 180 177 175 173 172 170 176 176 175 178 178
279 283 287 291 297 299 304 308 311 311 311 308 306 304 303 306 307 305 303 300 300 300 298 296 293 291 285 280 277 273 275 273 269 270 270 271 269 266 266 266 259 260 263 262 259 256 258 252 244 243 244 242 242 245 249 251 253 251 247 242 233 226 226 224 214 206 203 192 193 193 190 184 183 184 179 174 175 174 172 171 173 175 174 176 180
283 283 288 294 293 295 300 306 306 307 309 308 308 308 307 306 302 302 297 292 294 295 294 293 290 286 285 282 275 270 269 269 269 267 263 264 266 268 267 264 265 261 257 260 260 258 255 256 251 244 239 236 240 240 243 245 248 249 247 247 239 223 223 223 213 208 202 196 196 190 192 189 186 181 178 175 175 174 175 172 173 174 175 175 178
281 285 284 292 301 308 313 316 318 318 318 318 317 319 316 312 308 308 305 299 291 291 296 298 295 292 288 281 273 274 269 266 268 265 266 266 263 264 263 263 262 263 260 255 259 260 257 253 250 246 247 238 230 231 236 243 244 246 249 245 245 233 223 224 218 213 207 203 196 191 190 188 181 180 179 179 179 175 173 174 173 173 172 175 179
283 286 287 291 297 308 317 322 322 320 315 311 311 309 310 311 310 307 303 302 297 292 295 304 306 299 284 280 284 272 269 268 266 266 265 261 261 260 258 259 259 259 261 261 257 255 256 253 249 246 244 245 237 226 227 235 240 241 244 246 245 241 229 226 223 217 208 208 202 193 190 187 184 182 181 179 178 177 175 174 173 170 170 176 177
283 285 292 303 313 319 320 317 320 312 305 301 303 306 307 310 313 308 296 298 296 297 295 307 300 309 319 318 302 291 257 253 254 261 252 254 254 256 260 260 259 261 265 267 262 258 255 254 250 246 243 242 240 238 229 227 234 237 239 240 242 241 231 226 225 226 214 202 198 193 194 189 189 183 181 181 178 179 174 173 168 167 174 179 180
288 288 289 297 299 301 302 307 307 310 310 308 307 307 308 308 309 305 308 293 285 287 283 282 295 306 298 297 302 327 314 244 240 240 250 256 261 262 263 265 265 265 269 270 269 266 262 257 254 250 246 241 239 236 236 231 225 226 232 235 239 238 234 226 223 224 222 212 199 191 193 192 188 184 181 181 179 179 176 172 168 172 177 181 180
295 294 295 300 306 305 307 309 308 309 304 304 302 300 304 306 306 302 301 303 297 294 292 296 295 311 307 275 301 310 301 301 339 288 260 260 261 264 265 266 268 269 266 265 268 270 270 268 261 252 248 245 239 237 235 234 230 225 225 228 231 236 236 233 223 223 217 204 203 196 194 195 192 186 182 180 180 181 178 170 172 175 176 180 180
288 286 293 302 306 303 301 302 302 303 302 297 296 295 298 296 296 294 292 293 299 294 290 280 277 262 272 299 300 266 253 290 323 294 282 275 262 258 264 274 281 286 283 280 279 283 285 277 267 260 254 245 241 238 236 233 231 227 224 224 225 227 233 234 230 225 225 214 207 203 197 192 189 187 185 182 180 180 175 171 174 176 176 178 177
272 282 293 304 301 295 293 296 297 296 296 293 291 293 291 292 291 289 286 280 283 294 288 276 275 272 257 255 254 277 300 300 310 295 308 252 275 267 266 266 272 274 274 277 279 278 272 276 282 276 260 253 245 237 237 234 230 227 222 218 220 224 225 231 228 223 222 221 208 198 198 188 189 192 184 180 179 177 176 176 172 173 176 176 179
281 284 292 284 281 278 277 279 280 281 281 281 281 282 286 286 288 281 280 282 280 281 282 287 283 259 256 256 258 262 268 283 284 297 295 296 252 274 268 262 264 274 277 274 277 281 281 280 280 282 285 270 250 244 240 235 231 225 221 219 216 218 220 225 227 219 219 218 212 207 200 197 198 185 180 179 178 177 176 175 171 174 175 176 177
286 289 285 284 282 280 277 279 278 278 277 273 275 278 281 279 277 278 277 272 272 273 280 280 277 281 259 261 262 261 262 266 269 276 285 292 295 264 266 276 274 268 267 269 270 271 274 275 270 273 273 273 276 254 238 239 234 226 219 214 214 212 214 218 221 218 219 218 211 209 208 200 194 198 188 178 175 173 174 176 175 173 174 175 175
277 284 282 281 281 281 281 279 279 279 278 277 275 277 276 278 277 277 275 275 266 267 271 273 272 274 281 272 272 269 270 264 267 266 266 282 280 283 281 274 274 265 265 264 267 266 266 269 271 272 269 271 269 272 264 240 234 234 223 213 212 212 213 214 217 213 210 216 213 208 208 204 196 190 182 181 177 172 172 175 175 176 173 173 180
281 277 281 279 276 277 276 276 277 278 278 278 279 277 276 274 274 278 276 272 266 263 263 267 270 272 270 278 278 275 269 268 260 260 264 258 271 282 280 281 278 273 268 269 270 269 272 275 276 270 266 262 259 262 260 260 247 232 228 212 208 211 211 213 214 211 209 207 207 206 204 206 198 185 180 175 176 172 172 175 175 176 175 176 179
288 284 279 280 277 274 275 276 276 277 277 278 276 276 275 277 278 277 274 270 267 265 264 265 268 269 271 271 270 269 265 264 263 261 259 265 270 272 280 276 275 280 265 260 262 266 267 273 275 275 272 267 263 254 254 259 253 248 240 215 205 205 208 211 214 215 206 207 212 202 200 202 197 189 172 170 172 173 172 175 176 176 176 177 177
289 290 284 280 277 276 274 278 276 275 273 272 274 273 275 277 276 276 275 269 265 266 265 266 264 266 269 269 267 265 261 258 263 264 262 265 268 274 277 283 277 270 276 270 267 268 267 268 268 270 268 265 260 254 250 251 252 248 242 236 214 207 206 207 210 213 208 205 206 205 194 189 184 179 180 174 170 171 174 175 176 176 177 176 176
298 298 290 288 285 281 279 276 277 272 273 274 272 274 279 275 276 275 271 270 266 262 263 261 263 264 269 268 266 263 260 262 265 264 266 268 269 275 274 279 279 277 269 268 269 262 261 260 261 263 264 260 256 250 244 243 245 244 236 233 222 210 207 206 208 210 208 205 204 203 194 191 183 179 178 180 176 174 173 174 176 178 177 176 176
289 284 286 288 281 278 278 275 272 273 272 272 275 277 274 275 274 272 270 266 264 263 263 263 260 261 264 267 263 261 268 273 272 272 271 272 267 266 277 277 273 273 268 262 262 265 256 255 255 256 257 256 254 248 241 239 242 240 235 232 218 212 207 205 207 208 206 204 206 199 198 191 186 186 182 177 179 177 176 175 176 175 176 176 176
278 281 282 280 278 277 273 271 270 269 270 273 275 275 275 275 271 270 269 264 264 263 262 261 263 260 260 262 264 264 265 266 266 266 268 266 268 272 278 283 282 272 267 259 259 247 261 262 258 261 256 253 250 245 241 239 239 236 230 226 232 209 206 205 204 205 205 206 202 192 194 202 198 182 179 177 181 179 175 176 174 175 174 174 175
280 281 279 278 279 277 274 269 270 270 273 271 273 274 274 273 272 269 268 265 263 265 264 264 265 264 264 263 267 268 271 271 267 266 261 263 263 266 267 272 278 282 276 269 260 259 256 263 259 251 253 250 250 248 246 244 247 241 223 224 226 219 206 204 203 201 202 201 197 193 193 195 196 192 174 173 176 182 180 174 174 173 174 173 172
280 282 284 281 279 277 277 274 273 273 274 273 274 273 273 271 269 270 269 267 266 264 264 265 266 265 264 263 262 266 267 265 264 262 263 262 262 267 267 268 272 275 273 267 256 257 254 247 267 256 244 244 242 242 247 247 247 245 240 230 229 223 201 202 202 202 203 198 193 190 186 182 184 190 181 170 170 173 180 181 175 170 171 170 172
285 284 284 283 281 278 277 278 276 278 276 275 275 272 272 270 268 267 267 268 266 264 265 265 263 265 264 262 262 262 260 261 261 260 258 260 261 262 266 269 271 273 271 266 267 247 264 251 262 272 263 254 243 239 238 243 244 248 248 238 226 225 210 200 201 199 194 196 191 181 176 171 174 180 179 173 166 168 172 179 179 173 170 170 172
286 286 287 286 284 282 281 281 283 282 282 278 276 275 270 270 268 268 267 263 261 264 262 263 265 264 265 263 259 256 261 265 271 277 276 278 274 273 272 268 268 269 270 266 268 251 239 266 260 261 267 265 266 273 267 262 263 258 253 248 235 219 209 199 202 202 195 189 187 178 169 169 168 170 176 178 174 168 170 175 178 177 173 170 170
287 287 286 286 287 287 286 287 288 287 285 283 279 276 273 269 269 270 267 264 264 262 269 269 266 265 266 266 264 264 266 269 271 272 279 277 274 271 266 267 270 272 272 266 258 264 234 258 265 273 279 284 283 279 277 285 280 284 269 254 247 235 208 207 198 200 200 191 180 181 170 168 167 169 173 182 181 172 169 173 176 177 172 168 168
289 290 287 288 289 290 293 291 291 291 289 287 283 278 275 274 272 269 272 267 264 266 266 269 269 269 266 264 264 263 267 269 271 273 271 269 271 270 271 270 270 273 271 263 259 264 261 252 261 266 269 270 268 256 267 269 277 277 272 264 256 239 220 207 202 199 195 190 184 178 175 168 169 170 171 175 185 177 167 170 174 177 171 167 167
289 290 293 293 294 297 295 294 292 290 287 287 283 279 278 276 274 275 270 268 264 267 271 266 266 266 267 264 263 263 263 263 266 272 278 278 275 277 278 275 272 271 272 266 255 261 266 258 264 256 262 255 265 245 249 260 269 270 265 264 256 244 220 219 202 199 197 191 185 180 176 172 171 170 170 172 176 180 169 168 170 175 171 166 166
296 296 300 299 299 298 296 295 294 293 290 287 284 282 280 280 279 277 272 270 270 270 270 269 268 269 267 265 265 265 265 268 268 268 269 272 275 272 271 269 271 272 272 268 260 258 262 264 264 272 266 258 254 263 246 246 254 257 264 265 263 246 228 207 209 201 196 192 187 183 178 174 171 171 171 171 176 178 170 168 170 170 169 166 168
302 300 305 304 302 301 299 296 293 290 289 288 286 284 282 280 279 277 275 272 272 271 270 270 271 270 266 267 266 265 266 266 267 266 268 269 270 271 267 259 261 266 270 273 262 254 261 268 257 267 271 271 263 261 262 248 252 258 259 268 262 253 228 207 208 207 195 192 185 182 180 175 171 171 170 170 173 176 172 168 167 167 167 168 170
304 308 308 308 304 302 298 297 295 292 291 291 287 285 284 280 279 278 277 276 274 274 271 269 269 268 269 270 271 268 265 265 266 267 268 269 269 272 272 271 268 264 263 262 261 255 257 259 266 265 272 272 273 271 259 265 260 257 258 256 259 253 238 218 193 209 193 188 181 178 177 174 171 169 168 168 169 173 172 166 165 165 166 168 170
310 307 307 305 303 299 296 295 294 293 292 291 288 288 288 283 280 278 278 276 276 274 272 271 271 270 269 267 267 266 266 265 267 268 270 269 271 270 268 268 271 282 282 274 260 254 251 254 258 266 265 267 278 267 265 257 262 270 272 267 262 247 225 200 190 213 184 183 177 171 171 170 168 166 166 166 167 170 171 165 164 164 166 168 170
309 307 304 302 298 296 294 294 293 294 294 292 290 288 288 283 281 279 277 276 274 272 271 270 268 267 266 267 268 266 264 263 264 267 271 269 267 269 271 276 279 277 274 277 266 251 252 258 260 259 266 266 261 272 267 255 257 258 264 275 270 240 218 182 156 193 161 162 168 168 165 163 162 162 164 164 166 169 168 165 163 164 167 169 169
310 307 304 300 296 294 295 295 298 301 296 293 288 287 285 283 281 279 277 275 272 269 266 263 262 261 261 261 262 263 264 265 263 266 266 267 267 269 269 265 257 253 253 260 263 257 252 252 252 256 255 271 249 250 263 258 270 264 248 260 265 244 205 177 161 161 173 151 148 148 149 148 153 157 159 162 164 166 166 166 166 165 166 168 167
305 303 299 297 297 296 294 296 299 298 298 292 290 288 287 284 280 276 275 271 267 266 261 255 252 254 254 253 254 255 259 261 261 262 264 261 261 263 265 267 277 284 287 283 257 241 243 251 257 257 264 269 276 285 255 240 238 248 255 254 260 248 209 165 162 163 163 150 143 143 147 148 147 151 157 158 163 161 164 164 166 166 167 167 166
301 293 289 291 290 292 294 299 299 298 294 293 290 291 291 290 288 285 281 279 277 273 271 265 254 250 249 248 248 250 259 265 266 265 265 264 261 261 264 265 264 268 269 272 281 270 251 253 253 257 258 257 259 267 282 267 252 253 257 256 260 244 207 167 159 175 168 151 142 144 151 155 151 154 160 161 163 161 163 166 171 172 171 169 168
293 289 292 293 299 304 303 303 305 302 299 295 297 297 297 296 295 292 289 285 279 277 274 272 272 267 258 254 250 252 258 260 263 265 264 264 264 264 263 262 260 258 261 266 267 272 265 256 257 257 253 257 251 252 266 289 288 262 246 251 258 239 213 170 170 174 180 156 151 144 150 153 147 153 157 162 166 164 169 173 171 173 172 170 169
296 293 295 301 308 310 306 306 303 301 300 299 300 302 301 299 296 292 289 286 284 281 276 274 269 270 265 269 262 260 253 256 259 264 265 266 266 266 268 268 265 260 254 251 255 263 258 252 252 253 256 251 254 244 263 289 291 284 262 255 256 241 202 185 161 176 179 163 152 154 153 157 151 152 160 166 168 170 173 172 168 170 171 171 170
300 304 309 309 307 310 307 306 304 302 300 300 304 304 303 301 299 295 290 287 285 283 281 275 269 265 267 264 270 264 256 262 258 263 265 269 268 268 269 271 269 265 258 250 248 246 258 260 256 258 251 253 255 250 215 258 301 301 293 266 257 253 214 178 167 156 175 168 155 155 159 164 158 160 166 166 168 167 169 169 169 171 170 171 170
310 307 310 311 310 309 306 302 300 300 297 298 302 305 306 304 301 297 291 288 284 281 282 279 278 272 268 263 259 264 257 259 252 259 258 255 262 264 266 266 263 262 260 251 247 247 246 249 250 254 255 242 251 261 234 355 294 280 289 291 283 250 229 189 164 160 164 171 160 154 156 166 167 164 169 169 165 167 170 172 170 170 170 171 170
316 314 315 313 306 299 296 296 297 295 293 300 305 308 307 306 304 302 296 296 294 292 289 285 281 274 269 265 260 260 256 257 255 256 257 259 257 260 265 265 268 267 253 243 239 240 243 241 242 246 252 249 255 265 267 246 245 250 267 275 283 280 229 193 155 160 162 175 158 153 161 163 167 168 172 165 164 165 169 173 171 169 171 172 173
307 308 304 299 297 295 291 292 291 291 290 302 307 308 310 311 310 307 304 295 288 285 286 291 290 288 283 276 273 273 266 258 258 260 262 263 258 256 260 267 271 269 266 251 237 236 236 236 235 240 244 243 247 248 245 248 256 262 278 286 286 282 243 186 163 164 164 175 165 154 153 162 166 166 169 165 162 165 165 168 175 170 173 176 174
313 311 301 297 292 289 290 288 288 289 287 296 307 312 314 315 315 306 297 294 298 300 298 295 292 291 289 285 279 276 270 263 260 258 261 262 260 259 260 262 264 267 264 254 240 236 235 235 237 240 243 244 246 248 251 256 258 264 286 286 274 279 251 188 167 169 166 156 178 155 149 155 166 162 158 163 167 166 169 173 177 176 171 174 177
310 300 298 291 282 280 284 287 288 290 290 302 310 312 315 314 312 309 308 307 300 297 295 292 291 289 286 287 286 284 280 271 263 260 262 262 259 258 259 257 261 262 260 253 248 246 243 240 238 239 243 246 250 254 256 256 259 259 244 259 267 275 258 198 165 160 151 158 167 156 149 161 155 151 146 143 147 162 169 167 170 177 174 174 173
295 295 290 291 286 285 281 280 291 297 292 296 304 312 316 318 318 313 309 301 301 298 297 296 293 291 289 288 286 283 282 281 279 269 261 259 253 253 256 257 258 257 257 264 256 247 242 240 241 244 244 242 246 247 249 248 248 243 237 246 263 250 256 211 164 156 154 165 168 157 145 154 152 148 142 140 157 81 136 153 167 173 177 168 172